Weather History for KGRI - July, 2014

Change the Weather History Date:

Tuesday, July 15, 2014

  Actual Average Record
Temperature  
Mean Temperature 62 °F 76 °F  
Max Temperature 74 °F 88 °F 116 °F (1934)
Min Temperature 50 °F 65 °F 50 °F (2014)
Degree Days  
Heating Degree Days 3 0  
Month to date heating degree days 4 0  
Since 1 June heating degree days 14 24  
Since 1 July heating degree days 4 0  
Cooling Degree Days 0 12  
Month to date cooling degree days 120 169  
Year to date cooling degree days 489 447  
Since 1 June cooling degree days 370 382  
Growing Degree Days 12 (Base 50)    
Moisture  
Dew Point 50 °F    
Average Humidity 67    
Maximum Humidity 89    
Minimum Humidity 44    
Precipitation  
Precipitation 0.00 in 0.11 in 1.28 in (2008)
Month to date precipitation 2.06 1.71  
Year to date precipitation 16.20 15.96  
Snow  
Snow 0.00 in 0.00 in - ()
Month to date snowfall 0.0 0.0  
Since 1 June snowfall 0.0 0.0  
Since 1 July snowfall 0.0 0.0  
Snow Depth 0.00 in    
Sea Level Pressure  
Sea Level Pressure 30.17 in    
Wind  
Wind Speed 6 mph (North)    
Max Wind Speed 14 mph    
Max Gust Speed 20 mph    
Visibility 10 miles    
Events      
T = Trace of Precipitation, MM = Missing Value Source: NWS Daily Summary

Daily Weather History Graph

Daily Weather History Graph

Search for Another Location

Airport or City:

Trip Planner

Search our weather history database for the weather conditions in past years. The results will help you decide how hot, cold, wet, or windy it might be!

Date:

Astronomy

Jul. 15, 2014 Rise Set
Actual Time 6:14 AM CDT 9:03 PM CDT
Civil Twilight 5:41 AM CDT 9:36 PM CDT
Nautical Twilight 5:00 AM CDT 10:17 PM CDT
Astronomical Twilight 4:13 AM CDT 11:04 PM CDT
Moon 11:10 PM CDT (7/15) 10:12 AM CDT (7/15)
Length of Visible Light 15h 54m
Length of Day
14h 49m
Waning Gibbous, 85% of the Moon is Illuminated
Jul 15
Waning Gibbous
Jul 18
Last Quarter
Jul 26
New
Aug 3
First Quarter
Aug 10
Full

Hourly Weather History & Observations

Time (CDT) Temp. Dew Point Humidity Pressure Visibility Wind Dir Wind Speed Gust Speed Precip Events Conditions
1:53 AM 54.0 °F 48.9 °F 83% 30.23 in 10.0 mi WNW 5.8 mph - N/A   Clear
2:53 AM 54.0 °F 48.9 °F 83% 30.23 in 10.0 mi WNW 6.9 mph - N/A   Clear
3:53 AM 52.0 °F 48.9 °F 89% 30.22 in 10.0 mi West 6.9 mph - N/A   Clear
4:53 AM 51.1 °F 48.0 °F 89% 30.22 in 10.0 mi WNW 4.6 mph - N/A   Clear
5:53 AM 50.0 °F 46.9 °F 89% 30.22 in 10.0 mi NW 6.9 mph - N/A   Clear
6:53 AM 52.0 °F 48.0 °F 86% 30.23 in 10.0 mi WNW 5.8 mph - N/A   Clear
7:53 AM 55.9 °F 50.0 °F 80% 30.23 in 10.0 mi NW 6.9 mph - N/A   Clear
8:53 AM 61.0 °F 51.1 °F 70% 30.23 in 10.0 mi North 11.5 mph - N/A   Clear
9:53 AM 64.0 °F 51.1 °F 63% 30.24 in 10.0 mi North 8.1 mph - N/A   Clear
10:53 AM 66.0 °F 46.9 °F 50% 30.23 in 10.0 mi North 6.9 mph - N/A   Clear
11:53 AM 69.1 °F 46.9 °F 45% 30.22 in 10.0 mi NW 8.1 mph - N/A   Clear
12:53 PM 69.1 °F 48.0 °F 47% 30.20 in 10.0 mi North 11.5 mph - N/A   Clear
1:53 PM 71.1 °F 50.0 °F 47% 30.18 in 10.0 mi NNE 8.1 mph - N/A   Partly Cloudy
2:53 PM 72.0 °F 48.0 °F 43% 30.15 in 10.0 mi North 5.8 mph - N/A   Partly Cloudy
3:53 PM 73.9 °F 50.0 °F 43% 30.13 in 10.0 mi North 8.1 mph - N/A   Partly Cloudy
4:53 PM 72.0 °F 48.0 °F 43% 30.12 in 10.0 mi Calm Calm - N/A   Clear
5:53 PM 73.0 °F 50.0 °F 44% 30.10 in 10.0 mi NE 5.8 mph - N/A   Mostly Cloudy
6:53 PM 70.0 °F 50.0 °F 49% 30.09 in 10.0 mi ESE 5.8 mph - N/A   Clear
7:53 PM 70.0 °F 51.1 °F 51% 30.09 in 10.0 mi East 5.8 mph - N/A   Clear
8:53 PM 66.9 °F 54.0 °F 63% 30.09 in 10.0 mi ESE 3.5 mph - N/A   Scattered Clouds
9:53 PM 63.0 °F 55.0 °F 75% 30.09 in 10.0 mi SE 5.8 mph - N/A   Partly Cloudy
10:53 PM 60.1 °F 55.0 °F 83% 30.10 in 10.0 mi ESE 4.6 mph - N/A   Clear
11:53 PM 60.1 °F 54.0 °F 80% 30.11 in 10.0 mi East 4.6 mph - N/A   Scattered Clouds